Language: 


Des rapports , des résumés tant et plus, au choix de chacun....


Données statistiques de la station
Quotidien Rapport Novembre 28, 2017 Unités:  Métrique    Anglais   les deux
« Précédent Jour
Suivant Jour »
Quotidien Hebdomadaire Mensuel Annuel Actuel
  Haut: Bas: Moyen:
Température: 8.6 °C 0.6 °C 4.5 °C
Pt de rosée: 9.0 °C 1.0 °C 4.5 °C
Humidité: 98 % 90 % 97 %
Vitesse du vent: 13.7 km/h 0.0 km/h 2.4 km/h
Rafales: 16.9 km/h - -
Vent:- - West
Pression: 1007.0 hPa 1005.0 hPa -
Précipitation: 1.8 mm    
Historical Graphs
 
 
Données statistiques pour Novembre 28, 2017
Heure Température Point de rosée Pression Vent Vitesse du vent Refales Humidité Pluie (taux horaire)
00:02 7.0 °C 7.0 °C 1007.0 hPa West 10.5 km/h 12.2 km/h 98 % 0.3 mm
00:07 7.0 °C 7.0 °C 1007.0 hPa West 13.7 km/h 13.7 km/h 98 % 0.3 mm
00:12 7.0 °C 7.0 °C 1007.0 hPa WSW 9.3 km/h 13.7 km/h 98 % 0.3 mm
00:17 7.0 °C 7.0 °C 1007.0 hPa West 8.7 km/h 16.3 km/h 98 % 0.3 mm
00:22 7.0 °C 7.0 °C 1007.0 hPa SSW 9.7 km/h 16.3 km/h 98 % 0.3 mm
00:27 7.0 °C 7.0 °C 1007.0 hPa WSW 5.0 km/h 13.7 km/h 98 % 0.3 mm
00:32 7.0 °C 7.0 °C 1007.0 hPa West 9.7 km/h 16.9 km/h 98 % 0.0 mm
00:37 7.0 °C 7.0 °C 1007.0 hPa West 12.2 km/h 16.9 km/h 98 % 0.0 mm
00:42 7.0 °C 7.0 °C 1007.0 hPa WSW 3.5 km/h 15.4 km/h 98 % 0.0 mm
00:47 6.9 °C 7.0 °C 1007.0 hPa West 10.5 km/h 12.2 km/h 98 % 0.0 mm
00:52 6.9 °C 7.0 °C 1007.0 hPa Calm   10.5 km/h 98 % 0.0 mm
00:57 6.8 °C 7.0 °C 1007.0 hPa WNW 5.5 km/h 9.7 km/h 98 % 0.0 mm
01:02 6.8 °C 7.0 °C 1007.0 hPa West 5.0 km/h 7.9 km/h 98 % 0.0 mm
01:06 6.7 °C 7.0 °C 1007.0 hPa Calm   7.9 km/h 98 % 0.0 mm
01:12 6.7 °C 7.0 °C 1007.0 hPa Calm   6.4 km/h 98 % 0.0 mm
01:17 6.6 °C 7.0 °C 1007.0 hPa Calm   6.1 km/h 98 % 0.0 mm
01:22 6.6 °C 7.0 °C 1007.0 hPa Calm   6.1 km/h 98 % 0.0 mm
01:27 6.6 °C 7.0 °C 1007.0 hPa West 6.4 km/h 8.7 km/h 98 % 0.0 mm
01:32 6.6 °C 7.0 °C 1007.0 hPa Calm   9.0 km/h 98 % 0.0 mm
01:37 6.6 °C 7.0 °C 1007.0 hPa WSW 5.8 km/h 10.1 km/h 98 % 0.0 mm
01:42 6.7 °C 7.0 °C 1006.0 hPa West 9.3 km/h 10.1 km/h 98 % 0.0 mm
01:47 6.7 °C 7.0 °C 1006.0 hPa Calm   10.1 km/h 98 % 0.0 mm
01:52 6.6 °C 7.0 °C 1006.0 hPa WNW 7.2 km/h 11.9 km/h 98 % 0.0 mm
01:57 6.6 °C 7.0 °C 1007.0 hPa West 8.7 km/h 11.9 km/h 98 % 0.0 mm
02:02 6.6 °C 7.0 °C 1007.0 hPa West 9.3 km/h 12.2 km/h 98 % 0.0 mm
02:07 6.5 °C 7.0 °C 1007.0 hPa WSW 9.0 km/h 12.2 km/h 98 % 0.0 mm
02:12 6.5 °C 7.0 °C 1006.0 hPa West 7.2 km/h 11.6 km/h 98 % 0.0 mm
02:17 6.5 °C 7.0 °C 1006.0 hPa West 8.7 km/h 10.1 km/h 98 % 0.0 mm
02:22 6.4 °C 6.0 °C 1006.0 hPa WSW 9.0 km/h 10.1 km/h 98 % 0.0 mm
02:27 6.4 °C 6.0 °C 1006.0 hPa West 6.9 km/h 12.6 km/h 98 % 0.0 mm
02:32 6.4 °C 6.0 °C 1006.0 hPa West 2.6 km/h 12.6 km/h 98 % 0.0 mm
02:37 6.4 °C 6.0 °C 1006.0 hPa Calm   13.7 km/h 98 % 0.0 mm
02:42 6.4 °C 6.0 °C 1007.0 hPa West 6.1 km/h 13.7 km/h 98 % 0.0 mm
02:47 6.4 °C 6.0 °C 1007.0 hPa Calm   11.9 km/h 98 % 0.0 mm
02:52 6.3 °C 6.0 °C 1007.0 hPa Calm   10.1 km/h 98 % 0.0 mm
02:57 6.1 °C 6.0 °C 1007.0 hPa West 3.2 km/h 6.9 km/h 98 % 0.0 mm
03:02 6.0 °C 6.0 °C 1007.0 hPa Calm   6.1 km/h 98 % 0.0 mm
03:07 5.8 °C 6.0 °C 1007.0 hPa Calm   3.2 km/h 98 % 0.0 mm
03:12 5.6 °C 6.0 °C 1007.0 hPa WSW 5.5 km/h 5.8 km/h 98 % 0.0 mm
03:17 5.5 °C 6.0 °C 1007.0 hPa Calm   5.8 km/h 98 % 0.0 mm
03:22 5.5 °C 6.0 °C 1007.0 hPa Calm   5.5 km/h 98 % 0.0 mm
03:28 5.5 °C 6.0 °C 1007.0 hPa Calm     98 % 0.0 mm
03:33 5.5 °C 6.0 °C 1007.0 hPa West 4.3 km/h 4.3 km/h 98 % 0.0 mm
03:38 5.4 °C 6.0 °C 1007.0 hPa Calm   6.4 km/h 98 % 0.0 mm
03:43 5.3 °C 6.0 °C 1007.0 hPa WNW 5.5 km/h 6.4 km/h 98 % 0.0 mm
03:48 5.2 °C 5.0 °C 1007.0 hPa West 5.8 km/h 6.9 km/h 98 % 0.0 mm
03:53 5.1 °C 5.0 °C 1007.0 hPa West 5.0 km/h 6.9 km/h 98 % 0.0 mm
03:58 5.0 °C 5.0 °C 1007.0 hPa West 2.6 km/h 8.7 km/h 98 % 0.0 mm
04:03 4.8 °C 5.0 °C 1007.0 hPa WSW 4.7 km/h 8.7 km/h 98 % 0.0 mm
04:08 4.6 °C 5.0 °C 1007.0 hPa Calm   7.2 km/h 98 % 0.0 mm
04:13 4.3 °C 4.0 °C 1007.0 hPa Calm   1.8 km/h 98 % 0.0 mm
04:18 4.2 °C 4.0 °C 1007.0 hPa Calm     98 % 0.0 mm
04:23 3.9 °C 4.0 °C 1007.0 hPa WSW 2.6 km/h 2.6 km/h 98 % 0.0 mm
04:28 3.7 °C 4.0 °C 1007.0 hPa Calm   2.6 km/h 98 % 0.0 mm
04:30 3.6 °C 4.0 °C 1007.0 hPa Calm   2.6 km/h 98 % 0.0 mm
04:35 3.5 °C 4.0 °C 1007.0 hPa Calm   7.6 km/h 98 % 0.0 mm
04:40 3.5 °C 4.0 °C 1007.0 hPa West 5.0 km/h 7.9 km/h 98 % 0.0 mm
04:45 3.6 °C 4.0 °C 1007.0 hPa Calm   7.9 km/h 98 % 0.0 mm
04:50 3.6 °C 4.0 °C 1007.0 hPa WSW 6.1 km/h 7.9 km/h 98 % 0.0 mm
04:55 3.6 °C 4.0 °C 1007.0 hPa Calm   6.4 km/h 98 % 0.0 mm
05:00 3.5 °C 4.0 °C 1007.0 hPa Calm   6.4 km/h 98 % 0.0 mm
05:05 3.4 °C 3.0 °C 1007.0 hPa Calm   5.5 km/h 98 % 0.0 mm
05:10 3.4 °C 3.0 °C 1007.0 hPa Calm   4.7 km/h 98 % 0.0 mm
05:15 3.2 °C 3.0 °C 1007.0 hPa Calm   4.7 km/h 98 % 0.0 mm
05:20 3.0 °C 3.0 °C 1007.0 hPa Calm     98 % 0.0 mm
05:25 2.7 °C 3.0 °C 1007.0 hPa Calm     98 % 0.0 mm
05:29 2.6 °C 3.0 °C 1007.0 hPa Calm     98 % 0.0 mm
05:35 2.7 °C 3.0 °C 1007.0 hPa Calm     98 % 0.0 mm
05:40 2.7 °C 3.0 °C 1007.0 hPa West 4.7 km/h 5.8 km/h 98 % 0.0 mm
05:45 2.8 °C 3.0 °C 1007.0 hPa West 1.4 km/h 5.8 km/h 98 % 0.0 mm
05:50 2.8 °C 3.0 °C 1007.0 hPa Calm   5.0 km/h 98 % 0.0 mm
05:55 2.7 °C 3.0 °C 1007.0 hPa WNW 3.5 km/h 3.5 km/h 98 % 0.0 mm
06:00 2.7 °C 3.0 °C 1007.0 hPa Calm   5.0 km/h 98 % 0.0 mm
06:05 2.8 °C 3.0 °C 1007.0 hPa West 6.4 km/h 6.4 km/h 98 % 0.0 mm
06:10 2.7 °C 3.0 °C 1007.0 hPa Calm   6.9 km/h 98 % 0.0 mm
06:15 2.6 °C 3.0 °C 1007.0 hPa West 5.0 km/h 6.9 km/h 98 % 0.0 mm
06:20 2.6 °C 3.0 °C 1007.0 hPa Calm   6.1 km/h 98 % 0.0 mm
06:25 2.4 °C 3.0 °C 1007.0 hPa Calm   5.5 km/h 98 % 0.0 mm
06:30 2.0 °C 2.0 °C 1007.0 hPa Calm     98 % 0.0 mm
06:35 1.8 °C 2.0 °C 1007.0 hPa Calm     98 % 0.0 mm
06:40 1.7 °C 2.0 °C 1007.0 hPa Calm   4.0 km/h 98 % 0.0 mm
06:45 1.7 °C 2.0 °C 1007.0 hPa West 4.0 km/h 5.8 km/h 98 % 0.0 mm
06:50 1.7 °C 2.0 °C 1007.0 hPa Calm   6.9 km/h 98 % 0.0 mm
06:55 1.6 °C 2.0 °C 1007.0 hPa Calm   6.9 km/h 98 % 0.0 mm
07:00 1.3 °C 1.0 °C 1007.0 hPa Calm     98 % 0.0 mm
07:05 1.1 °C 1.0 °C 1007.0 hPa Calm     98 % 0.0 mm
07:10 1.0 °C 1.0 °C 1007.0 hPa Calm     98 % 0.0 mm
07:15 1.1 °C 1.0 °C 1007.0 hPa Calm     98 % 0.0 mm
07:20 1.4 °C 1.0 °C 1007.0 hPa Calm   6.1 km/h 98 % 0.0 mm
07:25 1.6 °C 2.0 °C 1007.0 hPa WNW 1.8 km/h 6.1 km/h 98 % 0.0 mm
07:30 1.7 °C 2.0 °C 1007.0 hPa Calm   4.7 km/h 98 % 0.0 mm
07:35 1.6 °C 2.0 °C 1007.0 hPa Calm   4.7 km/h 98 % 0.0 mm
07:40 1.6 °C 2.0 °C 1007.0 hPa Calm     98 % 0.0 mm
07:45 1.7 °C 2.0 °C 1007.0 hPa Calm     98 % 0.0 mm
07:51 1.7 °C 2.0 °C 1007.0 hPa Calm     98 % 0.0 mm
07:56 1.6 °C 2.0 °C 1007.0 hPa Calm     98 % 0.0 mm
08:01 1.3 °C 1.0 °C 1007.0 hPa Calm     98 % 0.0 mm
08:06 1.2 °C 1.0 °C 1007.0 hPa Calm     98 % 0.0 mm
08:11 1.2 °C 1.0 °C 1007.0 hPa Calm     98 % 0.0 mm
08:16 1.3 °C 1.0 °C 1007.0 hPa West 4.3 km/h 4.3 km/h 98 % 0.0 mm
08:21 1.3 °C 1.0 °C 1007.0 hPa Calm   6.1 km/h 98 % 0.0 mm
08:26 1.1 °C 1.0 °C 1007.0 hPa Calm   6.1 km/h 98 % 0.0 mm
08:31 0.9 °C 1.0 °C 1007.0 hPa Calm   4.0 km/h 98 % 0.0 mm
08:36 0.7 °C 1.0 °C 1007.0 hPa Calm     98 % 0.0 mm
08:41 0.6 °C 1.0 °C 1006.0 hPa Calm   1.4 km/h 98 % 0.0 mm
08:46 0.6 °C 1.0 °C 1006.0 hPa Calm   1.4 km/h 98 % 0.0 mm
08:51 0.7 °C 1.0 °C 1006.0 hPa Calm     98 % 0.0 mm
08:56 0.9 °C 1.0 °C 1007.0 hPa Calm     98 % 0.0 mm
09:01 1.3 °C 1.0 °C 1007.0 hPa Calm   4.7 km/h 98 % 0.0 mm
09:06 1.6 °C 2.0 °C 1007.0 hPa Calm   4.7 km/h 98 % 0.0 mm
09:11 1.5 °C 2.0 °C 1007.0 hPa Calm   4.0 km/h 98 % 0.0 mm
09:17 1.5 °C 2.0 °C 1007.0 hPa Calm     98 % 0.0 mm
09:22 1.5 °C 2.0 °C 1007.0 hPa Calm     98 % 0.0 mm
09:27 1.5 °C 2.0 °C 1007.0 hPa Calm     98 % 0.0 mm
09:32 1.6 °C 2.0 °C 1007.0 hPa Calm     98 % 0.0 mm
09:37 1.9 °C 2.0 °C 1007.0 hPa Calm     98 % 0.0 mm
09:42 2.1 °C 2.0 °C 1007.0 hPa West 2.1 km/h 2.1 km/h 98 % 0.0 mm
09:47 2.4 °C 3.0 °C 1007.0 hPa Calm   2.1 km/h 98 % 0.0 mm
09:52 2.7 °C 3.0 °C 1007.0 hPa Calm   2.1 km/h 98 % 0.0 mm
09:57 2.9 °C 3.0 °C 1007.0 hPa Calm     98 % 0.0 mm
10:02 3.7 °C 4.0 °C 1007.0 hPa Calm     98 % 0.0 mm
10:07 4.0 °C 4.0 °C 1007.0 hPa Calm     98 % 0.0 mm
10:12 4.3 °C 4.0 °C 1007.0 hPa Calm     98 % 0.0 mm
10:17 4.5 °C 5.0 °C 1007.0 hPa Calm     98 % 0.0 mm
10:22 4.8 °C 5.0 °C 1007.0 hPa Calm     98 % 0.0 mm
10:27 5.0 °C 5.0 °C 1007.0 hPa Calm     98 % 0.0 mm
10:32 5.3 °C 6.0 °C 1007.0 hPa Calm   3.2 km/h 98 % 0.0 mm
10:37 5.7 °C 6.0 °C 1007.0 hPa Calm   3.2 km/h 98 % 0.0 mm
10:42 6.0 °C 6.0 °C 1007.0 hPa Calm     98 % 0.0 mm
10:43 6.0 °C 6.0 °C 1007.0 hPa Calm     98 % 0.0 mm
10:48 6.2 °C 6.0 °C 1007.0 hPa WSW 5.5 km/h 8.7 km/h 98 % 0.0 mm
10:53 6.5 °C 7.0 °C 1007.0 hPa WSW 6.4 km/h 8.7 km/h 98 % 0.0 mm
10:58 6.7 °C 7.0 °C 1007.0 hPa Calm   6.4 km/h 98 % 0.0 mm
11:03 7.1 °C 7.0 °C 1007.0 hPa SSW 6.4 km/h 6.4 km/h 98 % 0.0 mm
11:08 6.9 °C 7.0 °C 1007.0 hPa Calm   6.4 km/h 98 % 0.0 mm
11:13 7.0 °C 7.0 °C 1007.0 hPa Calm   6.1 km/h 98 % 0.0 mm
11:18 7.0 °C 7.0 °C 1007.0 hPa SSW 6.4 km/h 9.0 km/h 98 % 0.0 mm
11:23 7.2 °C 7.0 °C 1007.0 hPa SSW 9.0 km/h 11.9 km/h 98 % 0.0 mm
11:28 7.4 °C 7.0 °C 1006.0 hPa SW 9.3 km/h 11.9 km/h 98 % 0.0 mm
11:33 7.6 °C 8.0 °C 1006.0 hPa SW 8.7 km/h 10.5 km/h 98 % 0.0 mm
11:38 7.6 °C 8.0 °C 1006.0 hPa WSW 9.3 km/h 11.9 km/h 98 % 0.0 mm
11:43 7.4 °C 7.0 °C 1007.0 hPa WSW 7.6 km/h 11.9 km/h 97 % 0.0 mm
11:49 7.3 °C 7.0 °C 1007.0 hPa SW 9.0 km/h 10.1 km/h 97 % 0.0 mm
11:54 7.2 °C 7.0 °C 1007.0 hPa SW 8.7 km/h 12.2 km/h 96 % 0.0 mm
11:59 7.6 °C 7.0 °C 1007.0 hPa SW 5.8 km/h 12.2 km/h 97 % 0.0 mm
12:04 8.2 °C 8.0 °C 1007.0 hPa SW 9.0 km/h 10.5 km/h 97 % 0.0 mm
12:09 8.6 °C 9.0 °C 1007.0 hPa WSW 9.0 km/h 12.2 km/h 96 % 0.0 mm
12:14 8.5 °C 8.0 °C 1007.0 hPa WSW 4.3 km/h 12.2 km/h 95 % 0.0 mm
12:19 8.5 °C 8.0 °C 1007.0 hPa WSW 5.8 km/h 10.1 km/h 94 % 0.0 mm
12:24 8.5 °C 8.0 °C 1007.0 hPa WSW 6.9 km/h 9.3 km/h 94 % 0.0 mm
12:29 8.3 °C 8.0 °C 1007.0 hPa Calm   9.3 km/h 93 % 0.0 mm
12:34 8.2 °C 7.0 °C 1007.0 hPa Calm   9.3 km/h 93 % 0.0 mm
12:39 8.2 °C 7.0 °C 1007.0 hPa WSW 10.5 km/h 10.5 km/h 93 % 0.0 mm
12:44 8.0 °C 7.0 °C 1006.0 hPa SW 5.8 km/h 10.5 km/h 92 % 0.0 mm
12:49 8.0 °C 7.0 °C 1006.0 hPa SW 6.1 km/h 10.1 km/h 92 % 0.0 mm
12:59 7.7 °C 6.0 °C 1006.0 hPa SSW 7.9 km/h 11.9 km/h 92 % 0.0 mm
13:04 7.7 °C 6.0 °C 1006.0 hPa Calm   11.9 km/h 92 % 0.0 mm
13:09 7.8 °C 7.0 °C 1006.0 hPa WSW 7.9 km/h 11.6 km/h 93 % 0.0 mm
13:19 7.7 °C 6.0 °C 1006.0 hPa WSW 8.7 km/h 13.0 km/h 92 % 0.0 mm
13:24 7.7 °C 7.0 °C 1006.0 hPa WSW 6.4 km/h 10.5 km/h 93 % 0.0 mm
13:34 7.8 °C 7.0 °C 1006.0 hPa Calm   9.3 km/h 93 % 0.0 mm
13:39 7.8 °C 7.0 °C 1006.0 hPa WSW 7.9 km/h 9.3 km/h 93 % 0.0 mm
13:45 7.8 °C 7.0 °C 1005.0 hPa WSW 9.0 km/h 10.5 km/h 93 % 0.0 mm
13:50 7.8 °C 7.0 °C 1005.0 hPa WSW 9.7 km/h 11.9 km/h 93 % 0.0 mm
13:55 7.8 °C 7.0 °C 1005.0 hPa WSW 7.9 km/h 11.9 km/h 93 % 0.0 mm
14:05 7.9 °C 6.0 °C 1006.0 hPa West 5.0 km/h 12.2 km/h 90 % 0.0 mm
14:10 7.6 °C 6.0 °C 1006.0 hPa SSW 6.4 km/h 10.5 km/h 90 % 0.3 mm
14:15 7.4 °C 6.0 °C 1005.0 hPa Calm   10.1 km/h 90 % 0.5 mm
14:20 7.2 °C 6.0 °C 1005.0 hPa WNW 4.3 km/h 8.7 km/h 90 % 0.5 mm
14:30 7.1 °C 6.0 °C 1005.0 hPa NW 5.5 km/h 5.5 km/h 92 % 0.5 mm
14:35 7.1 °C 6.0 °C 1005.0 hPa WNW 5.0 km/h 6.9 km/h 93 % 0.5 mm
14:40 7.0 °C 6.0 °C 1005.0 hPa Calm   6.9 km/h 93 % 0.5 mm
14:45 6.9 °C 6.0 °C 1005.0 hPa Calm   1.8 km/h 94 % 0.5 mm
14:50 6.8 °C 6.0 °C 1005.0 hPa West 2.1 km/h 4.0 km/h 94 % 0.8 mm
14:55 6.7 °C 6.0 °C 1005.0 hPa Calm   4.7 km/h 95 % 0.8 mm
15:00 6.8 °C 6.0 °C 1005.0 hPa Calm   6.4 km/h 95 % 0.8 mm
15:05 6.9 °C 6.0 °C 1005.0 hPa Calm   6.4 km/h 95 % 0.8 mm
15:15 6.7 °C 6.0 °C 1005.0 hPa West 6.4 km/h 9.0 km/h 96 % 0.3 mm
15:20 6.4 °C 6.0 °C 1005.0 hPa West 5.0 km/h 10.1 km/h 95 % 0.8 mm
15:25 6.2 °C 6.0 °C 1005.0 hPa Calm   10.1 km/h 95 % 1.0 mm
15:30 6.2 °C 6.0 °C 1005.0 hPa Calm   6.4 km/h 95 % 1.0 mm
15:35 6.2 °C 6.0 °C 1005.0 hPa Calm   5.8 km/h 96 % 1.0 mm
15:40 6.1 °C 6.0 °C 1005.0 hPa Calm   5.8 km/h 96 % 1.0 mm
15:45 6.0 °C 6.0 °C 1005.0 hPa Calm     96 % 1.0 mm
15:50 6.0 °C 6.0 °C 1005.0 hPa Calm     96 % 0.8 mm
15:55 5.9 °C 6.0 °C 1005.0 hPa Calm     97 % 0.8 mm
16:00 5.9 °C 6.0 °C 1005.0 hPa Calm     97 % 0.8 mm
16:05 5.8 °C 6.0 °C 1005.0 hPa Calm     97 % 0.8 mm
16:10 5.8 °C 6.0 °C 1005.0 hPa Calm     97 % 0.8 mm
16:15 5.8 °C 6.0 °C 1005.0 hPa Calm     98 % 0.8 mm
16:20 5.7 °C 6.0 °C 1005.0 hPa Calm     98 % 0.3 mm
16:26 5.6 °C 6.0 °C 1005.0 hPa Calm     98 % 0.0 mm
16:31 5.6 °C 6.0 °C 1005.0 hPa Calm     98 % 0.0 mm
16:36 5.5 °C 6.0 °C 1005.0 hPa Calm     98 % 0.0 mm
16:41 5.4 °C 6.0 °C 1005.0 hPa Calm     98 % 0.0 mm
16:46 5.3 °C 6.0 °C 1005.0 hPa Calm     98 % 0.0 mm
16:51 5.1 °C 5.0 °C 1005.0 hPa Calm   4.7 km/h 98 % 0.0 mm
16:56 5.0 °C 5.0 °C 1005.0 hPa Calm   4.7 km/h 98 % 0.0 mm
17:01 4.8 °C 5.0 °C 1005.0 hPa Calm     98 % 0.0 mm
17:06 4.7 °C 5.0 °C 1005.0 hPa Calm     98 % 0.3 mm
17:11 4.6 °C 5.0 °C 1005.0 hPa Calm     98 % 0.3 mm
17:16 4.5 °C 5.0 °C 1005.0 hPa Calm     98 % 0.3 mm
17:21 4.4 °C 4.0 °C 1005.0 hPa Calm   5.8 km/h 98 % 0.3 mm
17:26 4.4 °C 4.0 °C 1006.0 hPa North 5.0 km/h 5.8 km/h 98 % 0.3 mm
17:31 4.4 °C 4.0 °C 1006.0 hPa WNW 2.6 km/h 5.0 km/h 98 % 0.3 mm
17:36 4.4 °C 4.0 °C 1006.0 hPa Calm   5.0 km/h 98 % 0.3 mm
17:41 4.3 °C 4.0 °C 1005.0 hPa Calm   5.0 km/h 98 % 0.3 mm
17:46 4.3 °C 4.0 °C 1005.0 hPa Calm   1.8 km/h 98 % 0.3 mm
17:51 4.2 °C 4.0 °C 1005.0 hPa Calm     98 % 0.3 mm
17:56 4.2 °C 4.0 °C 1005.0 hPa Calm     98 % 0.3 mm
18:01 4.2 °C 4.0 °C 1005.0 hPa Calm     98 % 0.3 mm
18:06 4.2 °C 4.0 °C 1005.0 hPa Calm   5.0 km/h 98 % 0.0 mm
18:11 4.3 °C 4.0 °C 1005.0 hPa Calm   5.0 km/h 98 % 0.0 mm
18:16 4.2 °C 4.0 °C 1005.0 hPa Calm   2.1 km/h 98 % 0.0 mm
18:21 4.2 °C 4.0 °C 1005.0 hPa Calm   2.1 km/h 98 % 0.0 mm
18:26 4.2 °C 4.0 °C 1005.0 hPa Calm     98 % 0.0 mm
18:31 4.2 °C 4.0 °C 1005.0 hPa NW 2.6 km/h 4.7 km/h 98 % 0.0 mm
18:36 4.1 °C 4.0 °C 1005.0 hPa Calm   4.7 km/h 98 % 0.0 mm
18:46 4.0 °C 4.0 °C 1005.0 hPa Calm     98 % 0.0 mm
18:51 3.9 °C 4.0 °C 1005.0 hPa Calm     98 % 0.0 mm
18:56 3.9 °C 4.0 °C 1005.0 hPa Calm     98 % 0.0 mm
19:01 3.8 °C 4.0 °C 1005.0 hPa Calm     98 % 0.0 mm
19:06 3.8 °C 4.0 °C 1005.0 hPa Calm     98 % 0.0 mm
19:16 3.7 °C 4.0 °C 1005.0 hPa Calm     98 % 0.0 mm
19:21 3.6 °C 4.0 °C 1005.0 hPa Calm     98 % 0.0 mm
19:26 3.5 °C 4.0 °C 1006.0 hPa Calm     98 % 0.0 mm
19:31 3.5 °C 4.0 °C 1006.0 hPa Calm     98 % 0.0 mm
19:36 3.5 °C 4.0 °C 1006.0 hPa Calm     98 % 0.0 mm
19:41 3.4 °C 3.0 °C 1005.0 hPa Calm     98 % 0.0 mm
19:47 3.5 °C 4.0 °C 1005.0 hPa NW 6.9 km/h 9.7 km/h 98 % 0.0 mm
19:57 3.6 °C 4.0 °C 1005.0 hPa Calm   6.9 km/h 98 % 0.0 mm
20:07 3.7 °C 4.0 °C 1005.0 hPa West 5.8 km/h 10.1 km/h 98 % 0.0 mm
20:12 3.9 °C 4.0 °C 1006.0 hPa WSW 5.8 km/h 14.0 km/h 98 % 0.0 mm
20:22 3.9 °C 4.0 °C 1006.0 hPa West 1.4 km/h 15.4 km/h 98 % 0.0 mm
20:27 3.9 °C 4.0 °C 1006.0 hPa NNW 4.3 km/h 12.6 km/h 98 % 0.0 mm
20:32 4.0 °C 4.0 °C 1006.0 hPa NNW 2.1 km/h 12.6 km/h 98 % 0.0 mm
20:37 4.0 °C 4.0 °C 1006.0 hPa NNW 3.2 km/h 8.7 km/h 98 % 0.0 mm
20:42 4.0 °C 4.0 °C 1006.0 hPa WNW 7.9 km/h 10.5 km/h 97 % 0.0 mm
20:47 4.0 °C 4.0 °C 1006.0 hPa Calm   10.5 km/h 97 % 0.0 mm
21:12 3.5 °C 3.0 °C 1005.0 hPa Calm   6.4 km/h 96 % 0.0 mm
21:17 3.4 °C 3.0 °C 1005.0 hPa Calm   4.7 km/h 96 % 0.0 mm
21:22 3.2 °C 3.0 °C 1005.0 hPa Calm   1.8 km/h 96 % 0.0 mm
21:27 3.1 °C 3.0 °C 1006.0 hPa Calm     96 % 0.0 mm
21:32 2.9 °C 3.0 °C 1006.0 hPa WSW 5.5 km/h 6.4 km/h 96 % 0.0 mm
21:37 2.7 °C 3.0 °C 1006.0 hPa Calm   6.4 km/h 96 % 0.0 mm
21:43 2.5 °C 3.0 °C 1006.0 hPa West 4.0 km/h 6.1 km/h 96 % 0.0 mm
21:48 2.3 °C 2.0 °C 1006.0 hPa Calm   5.8 km/h 96 % 0.0 mm
21:58 1.9 °C 2.0 °C 1006.0 hPa Calm   1.4 km/h 97 % 0.0 mm
22:03 1.9 °C 2.0 °C 1006.0 hPa West 4.3 km/h 4.3 km/h 97 % 0.0 mm
22:08 1.8 °C 1.0 °C 1006.0 hPa Calm   6.1 km/h 97 % 0.0 mm
22:13 1.7 °C 2.0 °C 1006.0 hPa Calm   6.1 km/h 98 % 0.0 mm
22:18 1.6 °C 2.0 °C 1006.0 hPa Calm     98 % 0.0 mm
22:23 1.6 °C 2.0 °C 1006.0 hPa Calm     98 % 0.0 mm
22:28 1.6 °C 2.0 °C 1005.0 hPa Calm     98 % 0.0 mm
22:33 1.5 °C 2.0 °C 1005.0 hPa Calm     98 % 0.0 mm
22:38 1.5 °C 2.0 °C 1005.0 hPa Calm   6.9 km/h 98 % 0.0 mm
22:53 1.5 °C 2.0 °C 1006.0 hPa Calm   6.9 km/h 98 % 0.0 mm
23:03 1.4 °C 1.0 °C 1005.0 hPa Calm     98 % 0.0 mm
23:08 1.3 °C 1.0 °C 1005.0 hPa Calm   6.9 km/h 98 % 0.0 mm
23:13 1.2 °C 1.0 °C 1005.0 hPa WSW 7.6 km/h 7.6 km/h 98 % 0.0 mm
23:19 1.1 °C 1.0 °C 1005.0 hPa West 5.0 km/h 8.7 km/h 98 % 0.0 mm
23:24 1.2 °C 1.0 °C 1005.0 hPa West 5.5 km/h 9.0 km/h 98 % 0.0 mm
23:28 1.2 °C 1.0 °C 1006.0 hPa West 6.1 km/h 9.0 km/h 98 % 0.0 mm
23:39 1.1 °C 1.0 °C 1006.0 hPa West 7.6 km/h 12.2 km/h 98 % 0.0 mm
23:44 1.1 °C 1.0 °C 1005.0 hPa WSW 6.1 km/h 12.2 km/h 98 % 0.0 mm
23:49 1.1 °C 1.0 °C 1005.0 hPa Calm   9.3 km/h 98 % 0.0 mm
23:54 1.0 °C 1.0 °C 1005.0 hPa Calm   8.7 km/h 98 % 0.0 mm
23:59 0.9 °C 1.0 °C 1006.0 hPa Calm   9.0 km/h 98 % 0.0 mm
Le Gheer Warneton
Courtoisie de Weather Underground - 2.25 mb

Mise a jour : 18/12/2017 23:00:12
Généré par Cumulus 1.9.4 (1099)